OBJECT F, 67751

Orbit data source: Space-Track

You're viewing an Uncataloged Satellite

Recently launched and/or uncataloged satellites may have evolving metadata. Metadata may include but not limited to: Owner, Maufacturer, Bus, Motor, and Mission.

OBJECT F, 67751 is a Chinese satellite in SSO that was launched on Thu, 12 Feb 2026 UTC via a JIELONG-3 launch vehicle from the South China Sea Launch Area (SCSLA). Unknown objects in Earth's orbit typically refer to objects detected orbiting the Earth but have not yet been identified or cataloged. These objects could be anything from previously untracked satellites, spent rocket stages, debris from satellite collisions, or even natural meteoroids temporarily captured by Earth's gravity.

Loading next visibility...
Identifier
67751, 2026-027F
Orbit
SSO
Country
Flag of CNCN / PRC
Related business
None
Manufacturer
Unknown
Mission
Operational Commercial Imaging
Bus & Motor
Unknown
Mass
Unknown
Launch date (UTC)
2026-02-12 (4 months ago)
Launch vehicle
JIELONG-3
Launch site
South China Sea Launch Area (SCSLA)
Object type
Unknown
Shape & HBR
Box + 1 Pan, 1.5 m
Radar Cross Section
0.445 m², Large (>1 m²)

Expand to show TLE details & history
Last TLE update: 18 hours ago

TLE from 18 hours ago
0 OBJECT F
1 67751U 26027F   26164.35230182  .00002143  00000-0  12764-3 0  9999
2 67751  97.5072 291.9021 0010985 125.2608 234.9652 15.12227669 18336
Epoch: 2026-06-13T08:27Z
TLE epoch observation values (Epoch: 2026-06-13T08:27:18.877Z)
Latitude
-0.00002°
Longitude
-96.59518°
Altitude
536.847 km
Speed
7.592 km/s
True Right ascension
19h 27m 36s
True Declination
0° 00' 00"
Sunlit
Object was in full shadow at epoch
Visualization orbit readout
Latitude
Unknown
Longitude
Unknown
Altitude
Unknown
Speed
Unknown
Apparent Right ascension
Unknown
Apparent Declination
Unknown
Sunlit
N/A
Visualization observer readout
Local Sidereal Time
12:57:27
Azimuth
Unknown
Elevation
Unknown
Doppler factor
Unknown
Orbital elements
Apogee altitude
533.973 km
Perigee altitude
518.804 km
Semi-major axis
6,904.526 km
Eccentricity
0.0011
Inclination
97.5072°
RAAN
291.9021°
Arg. of periapsis
125.2608°
True anomaly
234.86221°
Mean anomaly
234.9652°
Eccentric anomaly
234.9137°
Mean motion
3.78305 °/min
Orbital period
95.16 mins
BSTAR
0.00012764
Loading maneuver chart data...
Computing Atmospheric mass density...
Loading historical data...
Loading historical data...
Loading historical data...
Loading historical data...
Loading historical data...
Loading historical data...
Loading historical data...

Documentation

Showing up to 5 results
|